This is the latest recevied weather packets stored in our database for station/object K1ABC. If no packets are shown the sender has not sent any weather packets the latest 10 day(s).
| Time | Temp. | Humidity | Pressure | Rain* | Wind** | Luminosity | Snow |
|---|---|---|---|---|---|---|---|
| 1777813328 | 8.89° C | 81% | 1005.9 hPa | 0 mm | - | - | - |
| 1777810754 | 7.22° C | 90% | 1006.2 hPa | 0 mm | - | - | - |
| 1777809563 | 6.67° C | 92% | 1006.4 hPa | 0 mm | - | - | - |
| 1777808107 | 6.11° C | 93% | 1006.6 hPa | 0 mm | - | - | - |
| 1777807407 | 6.11° C | 93% | 1006.6 hPa | 0 mm | - | - | - |
| 1777805812 | 6.11° C | 93% | 1006.7 hPa | 0 mm | - | - | - |
| 1777805479 | 5.56° C | 93% | 1006.7 hPa | 0 mm | - | - | - |
| 1777804902 | 5.56° C | 93% | 1006.9 hPa | 0 mm | - | - | - |
| 1777803687 | 5.56° C | 94% | 1006.8 hPa | 0 mm | - | - | - |
| 1777802490 | 5.56° C | 94% | 1006.5 hPa | 0 mm | - | - | - |
| 1777802287 | 5.56° C | 94% | 1006.6 hPa | 0 mm | - | - | - |
| 1777799080 | 5.56° C | 94% | 1006.9 hPa | 0 mm | - | - | - |
| 1777798247 | 5.56° C | 94% | 1007 hPa | 0 mm | - | - | - |
| 1777797915 | 5.56° C | 94% | 1007.1 hPa | 0 mm | - | - | - |
| 1777797462 | 6.11° C | 94% | 1007.3 hPa | 0 mm | - | - | - |
| 1777797009 | 6.11° C | 94% | 1007.6 hPa | 0 mm | - | - | - |
| 1777796434 | 6.11° C | 94% | 1007.6 hPa | 0 mm | - | - | - |
| 1777795622 | 6.11° C | 94% | 1007.7 hPa | 0 mm | - | - | - |
| 1777794677 | 6.11° C | 94% | 1008 hPa | 0 mm | - | - | - |
| 1777791879 | 6.67° C | 93% | 1008.3 hPa | 0 mm | - | - | - |
| 1777791311 | 6.67° C | 93% | 1008.3 hPa | 0 mm | - | - | - |
| 1777789735 | 6.67° C | 93% | 1008.5 hPa | 0 mm | - | - | - |
| 1777788914 | 7.22° C | 93% | 1008.8 hPa | 0 mm | - | - | - |
| 1777788469 | 7.22° C | 94% | 1008.8 hPa | 0 mm | - | - | - |
| 1777787630 | 7.22° C | 94% | 1008.8 hPa | 0 mm | - | - | - |
* Rain latest hour (hover to see other rain measurements)
** Current wind speed in m/s (hover to see current wind gust speed)